EUTELSAT 25B            
1 39233U 13044A   19261.15442946  .00000139  00000-0  00000+0 0  9998
2 39233   0.0613 347.9391 0001904 167.3774 282.5715  1.00269605 22190
GSAT-7                  
1 39234U 13044B   19261.42894390 -.00000081  00000-0  00000+0 0  9990
2 39234   0.0098 182.1374 0006550  78.5847 324.7641  1.00272654 22199
ARIANE 5 R/B            
1 39235U 13044C   19260.89747066  .00003396  00000-0  65936-3 0  9992
2 39235   3.5634 232.9631 7181761 285.0144  11.0867  2.41507565 52113
ARIANE 5 DEB [SYLDA]    
1 39236U 13044D   19260.44385640  .00011693  00000-0  17246-2 0  9999
2 39236   3.6839  15.3123 5953427   2.6954 359.4066  4.12635639 75677